RH
70 70 71 72 72 73 74 75 76 77 76 76 76 76 76 77 77 79 79 78 77 75 76 75 73 77 44 31 41 36 57 46 36 32 34 29 23 24 25 25 28 25 29 29 31 34 32
69 70 70 70 71 73 73 74 76 77 77 76 76 76 77 77 78 79 79 79 78 77 73 72 74 72 23 23 38 38 40 37 37 32 33 29 28 26 26 27 25 32 30 28 28 32 35
68 68 70 71 72 73 73 74 76 77 76 76 76 76 77 78 78 80 80 79 80 78 71 68 74 31 32 41 34 36 35 36 37 35 30 36 32 24 26 30 34 29 23 29 32 30 38
68 66 69 71 72 73 73 74 76 77 76 77 77 77 77 78 79 82 80 80 82 77 73 71 69 27 38 33 35 33 31 30 32 34 36 37 31 30 29 25 22 21 21 20 30 32 38
68 66 67 70 71 72 73 73 75 76 76 76 77 76 78 80 82 84 81 76 74 70 68 64 33 27 40 40 31 34 33 35 34 34 36 28 30 34 25 19 16 21 15 20 30 33 36
70 67 66 70 72 72 72 73 74 76 76 77 77 77 80 82 82 85 73 68 64 53 39 25 23 24 29 33 36 35 32 36 35 35 35 32 27 22 22 16 17 14 16 22 21 34 37
73 70 66 68 71 72 72 73 73 75 76 77 77 78 81 81 81 81 49 29 20 23 34 37 37 34 34 32 33 35 37 35 32 29 25 35 22 18 18 21 16 19 21 21 27 28 31
75 73 68 67 68 72 72 73 74 74 76 77 77 78 80 80 76 66 44 41 63 54 35 38 37 34 34 35 31 34 32 32 32 33 33 25 20 26 35 35 32 31 29 27 29 28 27
76 76 72 69 67 70 71 72 73 73 76 77 77 78 81 78 70 50 53 63 65 65 28 36 38 36 38 33 39 40 34 36 33 34 32 22 29 34 32 32 30 27 26 24 22 30 36
78 78 76 72 68 68 70 72 73 73 76 77 76 78 81 72 47 44 47 60 66 61 23 30 36 36 30 39 42 40 31 35 37 29 33 26 30 33 34 33 28 26 24 27 30 29 24
84 80 79 75 71 69 68 71 72 72 75 76 77 78 76 63 38 34 51 66 68 40 74 35 38 30 31 36 39 39 32 32 29 35 26 22 34 36 35 28 27 25 35 35 35 31 38
88 84 82 78 74 71 68 70 71 70 73 74 76 78 64 41 44 54 65 68 53 45 88 33 35 33 28 30 32 31 29 26 29 32 31 26 35 36 33 38 35 34 34 34 37 33 52
89 89 86 81 78 74 69 70 71 70 71 73 76 74 50 40 37 60 63 41 35 52 26 29 34 32 30 28 29 33 33 27 28 47 23 23 30 40 39 37 36 35 31 40 38 55 31
90 91 88 85 80 76 71 69 69 68 70 73 73 65 54 51 65 64 43 25 46 28 20 37 36 35 31 28 28 30 34 27 39 28 26 37 42 39 33 39 32 36 30 33 28 28 22
92 90 89 88 82 78 72 69 67 67 69 73 64 57 51 48 60 48 25 38 37 24 30 37 36 30 25 31 29 27 28 31 37 36 25 27 22 32 29 26 30 33 42 34 32 21 37
96 96 93 90 84 80 74 70 66 65 67 73 43 45 49 51 60 38 20 36 22 44 41 34 21 24 21 25 25 25 24 37 41 40 35 29 24 32 33 25 26 31 29 36 34 55 47
98 97 96 94 90 84 76 71 64 62 64 68 44 25 40 52 46 24 29 25 30 45 44 32 26 21 22 22 28 24 21 40 37 39 34 32 28 26 27 29 27 31 32 33 32 38 47
98 97 96 96 95 90 80 71 64 62 64 47 42 29 45 46 27 35 22 23 57 46 46 47 43 30 27 30 32 33 29 33 38 35 33 33 28 28 22 23 21 22 26 29 33 39 35
90 98 98 97 97 94 88 80 67 62 64 47 24 30 46 42 32 27 42 45 48 48 45 48 47 46 44 37 34 38 42 42 35 37 34 33 31 37 32 28 24 23 22 27 34 34 35
88 88 98 97 97 95 93 88 75 62 64 50 34 34 39 39 35 25 38 35 42 45 44 42 44 41 43 44 43 38 46 46 35 33 37 33 33 33 43 38 28 27 25 24 27 44 26
77 83 90 98 96 96 93 87 71 63 65 46 30 27 38 34 32 34 37 34 40 37 43 39 40 42 38 38 42 42 48 48 39 41 32 27 42 38 28 27 27 27 26 25 28 26 31
74 75 79 96 96 95 94 88 78 66 68 46 31 30 38 34 39 43 52 39 37 40 39 40 42 33 38 34 29 30 43 43 39 42 39 31 41 36 37 30 34 36 28 28 26 25 26
75 76 78 86 96 95 93 88 82 69 66 49 46 38 35 46 40 37 37 33 39 38 38 35 36 32 40 36 27 33 34 36 36 38 41 35 37 36 27 41 38 25 43 36 44 58 53
75 76 80 84 95 94 93 90 87 74 71 58 55 46 61 62 40 40 37 42 47 41 35 40 32 29 42 32 29 26 29 36 39 40 35 39 33 36 47 39 48 78 61 67 68 67 75
76 76 76 83 94 94 93 92 88 81 73 69 62 48 48 46 36 38 40 48 49 47 46 43 46 44 34 26 21 19 22 32 46 48 44 40 36 40 47 45 31 76 70 68 68 61 74
76 75 77 83 94 94 93 91 89 86 80 84 81 68 48 51 39 46 43 43 42 43 44 50 49 43 35 23 18 29 44 18 38 57 47 45 50 40 54 52 37 62 56 51 71 66 70
78 76 78 81 88 95 91 90 91 90 83 87 88 79 62 75 67 61 44 44 40 43 43 44 47 42 40 26 31 26 23 32 30 43 59 55 57 61 53 58 57 70 54 50 76 66 54
78 82 88 90 93 93 88 90 89 85 80 74 78 73 68 82 59 62 63 46 48 46 41 47 40 43 40 35 27 35 33 37 37 44 56 52 59 68 68 77 79 60 53 61 61 56 51
85 89 89 92 93 91 89 88 85 83 77 74 82 59 55 72 59 46 48 48 57 64 55 67 53 47 39 51 47 46 46 49 47 40 56 56 53 53 55 54 64 57 65 55 51 53 53
Wind_Speed
3 5 6 7 8 9 10 11 11 12 13 13 14 14 13 14 13 12 11 10 9 8 7 7 7 7 2 4 3 5 13 9 3 2 5 2 2 2 4 4 2 5 4 5 7 14 13
3 4 5 6 7 9 10 11 11 12 13 14 14 14 14 14 14 13 12 11 9 7 7 6 7 6 1 2 3 7 8 5 7 3 4 3 2 2 6 3 0 3 5 5 5 10 9
2 3 5 6 8 9 10 11 11 12 13 13 14 14 14 13 14 13 12 11 8 6 6 6 6 2 6 5 3 6 4 3 4 2 3 3 1 2 4 5 2 4 5 5 5 10 5
1 2 4 6 7 9 10 10 11 11 12 13 13 14 14 14 14 13 13 10 6 4 5 6 5 1 4 1 3 4 5 3 4 4 4 3 3 6 3 5 3 2 2 5 4 10 6
2 1 3 5 7 8 9 10 10 11 11 12 13 14 13 14 14 14 12 7 3 3 4 4 1 2 4 2 1 4 6 4 3 3 5 4 3 4 3 4 3 3 4 4 5 3 5
3 2 2 4 6 7 9 10 10 11 11 12 13 13 13 13 14 12 10 2 4 0 1 0 2 2 1 2 3 3 3 3 3 1 1 3 3 2 3 5 4 4 4 3 5 6 4
5 4 3 3 5 7 7 9 10 10 12 12 13 14 14 13 12 9 2 2 2 2 8 5 3 2 2 2 2 5 4 1 0 2 1 3 4 3 1 1 2 0 2 5 1 3 3
9 7 4 2 3 5 7 8 9 10 11 13 14 14 14 15 10 4 3 5 3 2 5 4 2 2 1 3 1 8 4 0 1 3 0 3 1 3 4 3 2 2 3 6 2 0 4
11 10 7 5 3 3 6 8 9 11 12 13 14 15 15 14 3 5 7 5 1 3 2 3 2 2 2 2 2 5 4 1 3 3 2 1 3 3 1 3 3 5 8 5 4 1 2
13 12 9 7 5 2 3 6 9 10 11 13 14 15 16 15 2 1 4 1 1 2 2 3 2 3 1 1 2 2 4 2 1 2 2 2 2 5 5 5 6 8 1 2 3 4 5
13 13 11 9 7 4 3 4 6 8 10 12 14 14 12 11 6 2 3 1 1 3 2 1 1 1 0 1 2 2 2 2 2 4 4 3 5 4 5 2 5 2 2 1 2 6 5
15 14 12 10 8 5 4 4 5 6 8 10 12 12 7 2 2 3 2 1 2 1 3 3 1 1 1 2 2 4 3 4 2 1 1 2 2 2 3 3 1 4 2 1 2 4 7
16 15 13 11 10 7 5 4 6 7 8 9 11 7 4 1 2 4 2 2 1 2 2 4 2 0 1 1 1 4 2 1 3 2 2 1 2 2 1 3 2 3 3 4 5 5 6
17 17 15 13 11 9 6 4 5 6 8 10 6 4 5 3 3 3 1 2 3 0 3 1 2 1 3 0 2 0 1 3 2 2 2 3 4 5 2 2 2 5 3 4 8 10 13
17 16 14 13 12 10 7 4 4 5 6 7 2 2 2 4 4 1 1 1 2 3 3 4 2 3 3 2 2 2 2 1 1 1 4 3 2 3 3 2 3 4 6 3 7 9 8
18 17 15 14 13 12 9 7 5 4 5 5 1 1 1 6 4 2 1 3 1 2 2 1 3 1 3 3 3 2 2 3 3 1 2 1 5 1 2 1 3 3 2 3 2 7 9
18 19 18 18 15 12 11 9 5 3 3 1 1 1 1 4 2 0 2 3 2 2 2 3 3 3 4 3 4 4 2 4 1 4 0 1 3 3 2 4 1 4 4 3 3 4 6
13 18 19 18 16 14 12 9 6 4 1 2 2 2 3 3 2 1 2 1 1 2 0 2 2 3 4 5 4 4 4 2 1 3 4 2 1 5 2 3 1 1 2 4 7 7 3
10 10 17 18 18 17 15 11 8 5 5 3 2 1 1 3 3 3 1 1 0 2 2 2 3 2 1 3 4 2 1 2 1 3 3 5 4 5 5 3 2 5 3 2 2 0 12
6 12 12 19 20 20 18 15 12 8 6 0 2 2 1 2 1 3 4 2 3 1 1 1 1 2 2 3 1 1 3 1 1 2 3 4 4 9 14 11 1 5 6 8 8 6 13
6 7 11 18 21 23 19 17 13 8 8 2 1 2 1 3 4 4 3 4 4 4 1 3 2 6 5 5 3 4 2 3 1 0 1 3 6 4 8 7 6 9 12 12 15 15 13
5 7 8 10 22 22 22 19 15 9 8 1 4 4 1 3 3 5 4 6 9 5 7 5 6 3 7 5 3 4 6 5 2 3 4 1 3 1 5 4 4 11 14 14 14 15 17
5 8 7 10 21 23 23 20 17 13 9 2 1 0 2 4 4 3 4 5 6 8 1 2 4 5 6 3 3 5 5 4 2 3 7 3 3 2 5 2 7 14 6 9 3 2 3
5 9 9 10 15 22 22 22 20 18 10 1 3 2 4 3 4 5 4 3 4 3 3 2 2 4 4 9 10 7 8 7 4 5 2 5 4 2 4 3 6 4 2 4 2 2 0
9 10 10 10 11 22 22 22 21 18 13 2 1 1 3 3 3 4 7 5 6 4 3 3 1 2 9 4 2 2 3 3 3 4 1 2 4 4 4 4 6 4 2 1 1 2 2
10 12 11 9 9 21 22 20 19 17 12 4 1 2 2 5 3 3 4 5 4 4 4 2 3 2 2 3 3 4 4 2 3 3 2 3 1 5 2 4 6 5 4 3 3 6 5
12 15 12 11 8 20 20 19 17 16 15 4 1 2 3 5 1 1 3 4 5 3 3 4 5 3 2 3 4 6 4 1 4 5 5 4 3 10 8 5 4 5 5 4 2 3 5
16 17 17 12 15 21 20 18 19 17 17 6 1 4 3 4 2 1 2 3 3 3 4 6 5 2 3 6 4 4 4 3 2 2 3 6 6 5 4 5 7 8 5 4 3 3 2
18 12 6 12 22 20 19 17 18 19 15 6 4 3 7 8 4 2 6 5 2 3 2 2 2 3 3 3 2 2 4 3 4 3 2 5 3 2 5 0 3 5 1 2 3 1 2
Wind_Direction
64 50 37 31 21 18 16 16 10 5 1 1 360 357 354 352 345 341 341 336 342 350 346 346 345 340 228 76 73 330 329 333 356 16 41 46 61 113 120 105 107 98 119 86 99 87 93
52 32 27 27 25 19 14 13 11 7 2 359 357 354 353 349 341 338 336 333 343 345 347 346 340 317 223 121 333 319 325 338 27 47 55 33 107 131 104 92 45 101 122 123 127 138 132
39 23 16 19 21 19 16 10 10 7 2 358 355 352 348 347 341 337 335 334 336 338 338 337 346 336 61 80 328 330 349 8 1 18 88 46 49 232 140 133 112 121 142 138 135 160 134
32 8 19 15 18 15 14 11 9 5 1 357 354 351 348 342 338 336 333 335 328 328 325 324 331 307 74 337 325 4 355 19 28 30 62 38 51 88 11 105 85 148 225 189 132 166 147
233 317 5 18 13 12 10 9 6 4 0 355 352 351 345 340 339 338 340 341 355 320 307 319 259 313 98 339 22 358 6 6 359 36 48 53 50 58 135 178 175 185 220 205 154 215 150
238 283 340 1 7 9 8 6 1 357 357 354 351 345 340 341 341 337 338 322 359 260 6 150 105 159 63 30 354 343 10 13 37 61 99 42 58 151 145 209 255 212 221 199 209 158 203
222 257 295 345 354 358 4 3 358 355 352 353 348 342 339 339 339 342 359 180 189 126 41 42 29 45 6 345 301 27 3 317 27 76 51 43 236 222 61 322 2 27 257 261 131 95 214
219 224 229 280 330 347 352 356 353 354 354 350 345 340 340 341 338 16 60 67 84 47 90 35 41 57 4 323 123 23 342 169 61 96 268 189 233 63 102 112 150 183 245 245 238 243 256
216 224 221 218 244 321 346 352 353 352 352 348 344 339 336 339 299 35 69 96 154 194 76 50 40 27 341 328 62 355 346 137 93 121 82 256 105 144 172 171 219 226 243 229 273 178 146
213 220 221 226 235 260 347 352 352 351 351 346 344 341 340 330 135 85 62 73 210 240 164 44 31 62 317 360 75 341 359 332 107 148 163 238 139 198 198 223 217 264 304 219 205 233 260
217 220 219 220 229 250 305 342 350 349 349 348 343 342 347 15 124 76 77 327 251 238 359 84 53 342 30 23 37 81 13 290 192 166 199 98 182 189 219 261 197 22 58 106 235 256 292
216 217 217 222 225 234 273 311 331 342 348 348 345 343 340 19 55 47 351 284 218 212 259 165 225 224 196 45 65 326 18 43 22 141 314 37 35 335 3 59 22 128 210 190 185 243 246
217 211 211 217 223 222 243 291 321 336 346 351 347 354 44 10 68 341 316 221 241 204 64 170 171 53 53 20 66 15 33 21 296 275 206 161 161 107 305 202 154 206 260 281 220 203 264
213 209 203 206 217 218 231 268 312 333 343 345 356 33 38 45 343 331 228 233 221 37 194 115 161 178 229 138 144 41 184 216 128 272 234 254 221 182 38 299 325 190 247 254 290 293 301
212 208 202 200 209 213 217 246 289 320 340 348 336 60 74 7 349 279 229 255 249 188 107 160 163 216 175 174 255 260 205 197 118 226 234 220 222 106 43 343 310 143 216 20 290 266 273
201 205 203 201 208 210 205 215 258 298 342 355 109 100 42 329 335 256 171 241 219 60 120 179 236 283 233 175 212 215 194 142 157 217 282 126 266 47 95 226 88 285 50 209 201 289 279
207 203 203 198 200 202 207 207 227 276 353 86 53 170 54 329 250 72 228 219 169 150 199 208 205 217 224 214 219 207 191 111 153 140 292 167 270 124 217 202 209 161 202 206 297 235 266
228 207 205 195 190 194 200 209 214 232 120 96 163 233 7 301 153 54 194 183 62 165 140 231 258 243 225 180 208 236 237 63 136 169 172 139 218 251 270 109 335 273 265 244 234 235 251
355 243 207 195 182 189 193 198 223 219 205 144 183 100 48 285 209 187 135 188 312 179 201 187 232 280 8 224 245 222 171 45 154 186 175 166 190 284 193 170 175 233 183 163 116 184 244
325 359 223 198 182 185 191 190 207 218 201 88 156 192 72 70 40 139 156 189 187 82 121 53 106 125 157 217 193 281 195 145 311 170 143 191 214 243 267 311 92 207 209 210 212 240 268
351 329 348 207 190 183 188 189 197 193 203 252 156 199 18 172 201 155 174 149 166 188 162 170 197 220 193 208 194 223 175 173 218 201 87 261 251 247 267 272 250 254 250 230 224 243 255
351 333 319 237 190 190 182 185 182 190 175 281 167 169 95 100 114 137 181 205 198 176 170 189 214 159 193 215 219 186 173 206 210 172 191 179 251 249 259 266 265 265 253 247 255 259 263
331 336 310 332 200 191 186 178 179 176 165 171 175 254 138 141 144 165 211 196 203 149 211 359 170 156 196 203 85 81 71 57 101 191 179 202 224 241 276 349 318 269 292 229 196 62 288
315 336 323 313 218 192 185 176 175 189 167 129 204 155 115 191 175 201 164 148 162 204 135 142 178 174 116 123 113 108 80 82 91 65 58 176 192 233 291 288 247 75 68 54 9 263 70
310 313 312 299 235 187 185 181 176 184 170 139 263 139 143 155 144 149 151 125 106 78 88 136 57 47 145 126 153 162 165 170 91 57 57 340 198 236 268 245 330 175 170 115 14 90 126
297 311 306 291 250 183 180 179 180 180 143 101 61 329 105 132 174 48 147 172 149 147 138 83 67 112 160 197 174 229 238 132 186 142 59 101 44 227 169 263 277 74 136 115 98 266 173
296 296 281 276 250 176 172 178 185 169 156 117 79 72 67 107 126 196 153 167 145 139 123 143 157 167 312 200 187 203 213 61 207 186 167 166 206 220 226 252 270 133 138 140 211 46 165
300 291 275 241 185 163 170 169 157 159 137 98 122 39 86 91 70 306 46 152 132 171 173 137 127 199 173 212 202 174 206 177 190 112 186 190 186 197 194 220 249 156 138 227 75 161 229
305 294 276 162 149 153 148 153 150 145 125 111 95 86 59 71 76 78 86 69 8 4 131 156 70 155 159 140 205 143 159 165 158 217 174 218 256 215 229 40 106 169 27 120 152 197 258